User: anonymous
Location: Caltech
(34.1382°N, 118.1253°W)
Time: 17:23:07
(UTC-07:00)
Language:

Cosmos 2219 - Orbit

View from above orbital plane
View from above orbital plane
View from above satellite
View from above satellite

Ground track
Ground track

The orbit data is extracted from the following two-line orbital elements,

1 22219U 92076A   14232.41472676 -.00000331  00000-0 -15051-3 0  5786
2 22219 071.0586 192.8013 0017485 171.5356 323.8567 14.13488062122413
Epoch (UTC): 20 August 2014 09:57:12
Eccentricity: 0.0017485
inclination: 71.0586°
perigee height: 835 km
apogee height: 860 km
right ascension of ascending node: 192.8013°
argument of perigee: 171.5356°
revolutions per day: 14.13488062
mean anomaly at epoch: 323.8567°
orbit number at epoch: 12241

The dashed part of the orbit path shows where the satellite is in the earth's shadow,  

DLR